Location: Bun Machan
(52.1403°N, 7.3744°W)
Time: 11:29:32
(UTC+00:00)

Tiangong - Pass Details

Date: 28 June 2021
Orbit: 373 x 386 km, 41.5° (Epoch: 31 July)

Event Time Altitude Azimuth Distance (km) Brightness Sun altitude
Exits shadow 02:40:51 12° 183° (S) 1,263 3.1 -9.6°
Maximum altitude 02:40:54 12° 182° (S) 1,263 3.1 -9.6°
Drops below altitude 10° 02:42:13 10° 157° (SSE) 1,385 3.5 -9.5°
Sets 02:45:15 0° 125° (SE) 2,241 4.9 -9.2°
